FW7135 Weather Reports


time (UTC)temp
C
wind
direction
speed
KPH
gust
KPH
rain 1hr
cm
rain 24hr
cm
rain mn
cm
humidity
%
barometer
mb
20260505071540 4 9 0.0 3.2 0.03 0.18 0.05 93 1013.2
20260505070040 4 356 4.8 8.0 0.05 0.18 0.05 93 1013.5
20260505064543 4 5 3.2 4.8 0.08 0.18 0.05 93 1013.5
20260505063037 4 342 0.0 1.6 0.08 0.18 0.05 93 1013.5
20260505061550 4 350 1.6 4.8 0.05 0.15 0.03 92 1013.2
20260505060042 4 0 0.0 6.4 0.03 0.13 0.00 92 1013.6
20260505054600 4 0 0.0 6.4 0.00 0.10 0.10 92 1013.9
20260505053048 4 353 1.6 6.4 0.00 0.10 0.10 92 1013.8
20260505051540 4 321 6.4 11.3 0.00 0.10 0.10 92 1013.8
20260505041545 4 359 3.2 8.0 0.03 0.10 0.10 89 1013.3
20260505040040 4 30 4.8 8.0 0.03 0.10 0.10 89 1013.1
20260505034543 5 17 3.2 9.7 0.05 0.10 0.10 89 1013.0
20260505033042 5 336 3.2 8.0 0.05 0.10 0.10 89 1013.5
20260505031556 5 0 1.6 6.4 0.03 0.08 0.08 88 1013.2
20260505030038 5 6 3.2 9.7 0.03 0.08 0.08 88 1013.3
20260505024540 5 335 1.6 6.4 0.00 0.05 0.05 86 1013.4
20260505023040 5 345 3.2 6.4 0.03 0.05 0.05 85 1013.0
20260505021547 5 350 3.2 8.0 0.05 0.05 0.05 85 1013.0
20260505020041 5 347 1.6 6.4 0.05 0.05 0.05 85 1013.0
20260505014543 5 76 0.0 9.7 0.05 0.05 0.05 84 1012.5
20260505013045 6 342 4.8 25.7 0.03 0.03 0.03 78 1012.9
20260505011538 9 347 4.8 11.3 0.00 0.00 0.00 59 1012.5
20260505010036 8 347 4.8 14.5 0.00 0.00 0.00 60 1012.2
20260505004552 9 1 12.9 22.5 0.00 0.00 0.00 57 1011.8
20260505003042 10 321 12.9 20.9 0.00 0.00 0.00 53 1011.5
20260505001540 10 55 12.9 25.7 0.00 0.00 0.00 52 1011.5
20260505000055 11 6 11.3 27.4 0.00 0.00 0.00 49 1011.1
20260504234546 11 47 8.0 16.1 0.00 0.00 0.00 47 1011.3
20260504233041 11 344 8.0 25.7 0.00 0.00 0.00 47 1011.5
20260504231542 11 29 4.8 14.5 0.00 0.00 0.00 50 1011.6
20260504230057 11 33 3.2 9.7 0.00 0.00 0.00 50 1011.4
20260504224536 11 167 8.0 43.5 0.00 0.00 0.00 49 1011.3
20260504223042 13 192 0.0 4.8 0.00 0.00 0.00 37 1011.0
20260504221554 14 198 1.6 6.4 0.00 0.00 0.00 37 1010.9
20260504220038 15 51 3.2 14.5 0.00 0.00 0.00 36 1010.7
20260504214540 15 60 6.4 17.7 0.00 0.00 0.00 36 1010.6
20260504213045 15 59 4.8 20.9 0.00 0.00 0.00 36 1010.6
20260504211547 15 56 9.7 27.4 0.00 0.00 0.00 33 1010.6
20260504210041 15 357 9.7 17.7 0.00 0.00 0.00 32 1010.7
20260504204541 15 349 9.7 29.0 0.00 0.00 0.00 34 1010.9
20260504203037 15 347 11.3 27.4 0.00 0.00 0.00 34 1011.0
20260504201541 17 71 3.2 20.9 0.00 0.00 0.00 29 1010.7
20260504200040 16 78 1.6 11.3 0.00 0.00 0.00 34 1011.1
20260504194542 16 170 3.2 8.0 0.00 0.00 0.00 30 1011.1
20260504193041 17 199 4.8 8.0 0.00 0.00 0.00 28 1011.2
20260504191540 16 198 1.6 6.4 0.00 0.00 0.00 27 1011.3
20260504190044 15 1 3.2 8.0 0.00 0.00 0.00 29 1011.4
20260504184540 15 1 4.8 9.7 0.00 0.00 0.00 32 1011.6
20260504183156 14 13 6.4 12.9 0.00 0.00 0.00 33 1011.9
20260504081549 7 210 3.2 4.8 0.00 0.00 0.00 45 1014.3